Location: Passo di Treia
(43.2833°N, 13.3333°E)
Time: 11:30:41
(UTC+00:00)

Cosmos 1862 Rocket - Pass Details

Date: 09 December 2019
Orbit: 604 x 634 km, 82.5° (Epoch: 25 January)

Event Time Altitude Azimuth Distance (km) Brightness Sun altitude
Rises 16:28:41 0° 184° (S) 2,852 7.3 -10.2°
Reaches altitude 10° 16:30:53 10° 183° (S) 1,957 6.5 -10.6°
Maximum altitude 16:35:12 81° 97° (E) 626 3.5 -11.3°
Drops below altitude 10° 16:39:37 10° 10° (N) 1,990 5.9 -12.1°
Sets 16:41:52 0° 10° (N) 2,906 6.7 -12.5°
